Regional Weather Roundup
Issued by NWS

Home | Current Version | Previous Version | Text Only | Print | Product List | Glossary Off
Versions: 1 2 3 4 5 6 7 8 9 10 11 12 13 14 15 16 17 18 19 20 21 22 23 24 25 26 27 28 29 30 31 32 33 34 35 36 37 38 39 40 41 42 43 44 45 46 47 48 49 50

000
ASUS45 KBOI 271010
RWRID

IDAHO REGIONAL WEATHER ROUNDUP
NATIONAL WEATHER SERVICE BOISE ID
400 AM MDT THU APR 27 2017

NOTE: "FAIR" INDICATES FEW OR NO CLOUDS BELOW 12000 FEET
WITH NO SIGNIFICANT WEATHER AND/OR OBSTRUCTIONS TO VISIBILITY

IDZ012-014-271100-
SOUTHWEST IDAHO


CITY           SKY/WX    TMP DP  RH WIND       PRES   REMARKS
BOISE          PTCLDY    39  36  89 W5        29.87R
CALDWELL       MOCLDY    42  36  79 W13       29.89S
MOUNTAIN HOME  PTCLDY    39  39 100 N8        29.86R WCI  33
$$

IDZ016-017-271100-
SOUTHCENTRAL IDAHO


CITY           SKY/WX    TMP DP  RH WIND       PRES   REMARKS
BURLEY         FLURRIES  37  31  78 W24G38    29.74R WCI  26
JEROME         CLEAR     36  34  92 W25G32    29.79R WCI  24
TWIN FALLS     CLEAR     36  33  89 W24G35    29.81R WCI  24
$$

IDZ019>023-271100-
SOUTHEAST IDAHO


CITY           SKY/WX    TMP DP  RH WIND       PRES   REMARKS
IDAHO FALLS    LGT RAIN  37  35  92 NW16G26   29.63R WCI  28
POCATELLO      CLOUDY    38  35  89 SW24G30   29.71R WCI  27
REXBURG        CLOUDY    37  33  85 N14G24    29.61R WCI  28
$$

IDZ006-010-011-018-031-032-271100-
CENTRAL IDAHO MOUNTAINS


CITY           SKY/WX    TMP DP  RH WIND       PRES   REMARKS
MCCALL         MOCLDY    31  28  89 W3        29.80S
HAILEY         CLEAR     37  23  56 N8        29.70S WCI  31
STANLEY          N/A     30  24  78 VRB6      29.76S WCI  24
SALMON         CLOUDY    36  30  80 W3        29.73F
CHALLIS        CLOUDY    33  30  88 W7        29.73F WCI  27
$$

IDZ002-004-006-007-026-271100-
NORTHERN IDAHO


CITY           SKY/WX    TMP DP  RH WIND       PRES   REMARKS
LEWISTON       CLOUDY    44  36  73 W7        29.86R
LOWELL           N/A     41  39  93 CALM      29.88S
COEUR D`ALENE  PTCLDY    38  35  89 S7        29.77R WCI  33
MULLAN PASS    LGT SNOW  27  27 100 VRB7G18   29.68S VSB 3/4 WCI  19
$$



USA.gov is the U.S. government's official web portal to all federal, state and local government web resources and services.